カタログに戻る

STARLINK-5826

運用中通信VLEO
NORAD 55782·PAYLOAD·🇺🇸 United States

打ち上げ Mar 3, 2023 から Vandenberg Space Force Base

Loading…

次のパス (今後24時間)

TLE

最新Source: CelesTrak SupGP

元期: Sep 15, 2026, 01:22 UTC

1 55782C 23028AT  26258.05743056  .00765380  00000+0  63492-1 0  2586
2 55782  70.0001  87.1756 0003026 278.9138 207.8911 14.98339551    17

AllMySatでSTARLINK-5826をリアルタイム追跡

Download on the App Store